Regional Weather Roundup
Issued by NWS

Home | Current Version | Previous Version | Text Only | Print | Product List | Glossary Off
Versions: 1 2 3 4 5 6 7 8 9 10 11 12 13 14 15 16 17 18 19 20 21 22 23 24 25 26 27 28 29 30 31 32 33 34 35 36 37 38 39 40 41 42 43 44 45 46 47 48 49 50

000
ASUS43 KOAX 190010
RWRNE

WEATHER ROUNDUP FOR NEBRASKA
NATIONAL WEATHER SERVICE OMAHA NE
600 PM CST THU JAN 18 2018

NOTES: SATELLITE DATA IS BEING USED TO AUGMENT CLOUD COVER ABOVE
       12000 FEET.
       "FAIR" INDICATES FEW OR NO CLOUDS BELOW 12,000 FEET WITH NO
       SIGNIFICANT WEATHER AND/OR OBSTRUCTIONS TO VISIBILITY.


NEZ001>004-019>022-054>056-190100-
NEBRASKA PANHANDLE

CITY           SKY/WX    TMP DP  RH WIND       PRES   REMARKS
SCOTTSBLUFF    MOCLDY    47  31  53 NW9       29.88F
6HR MIN TEMP:  43; 6HR MAX TEMP:  52;

ALLIANCE       MOCLDY    39  32  76 SW7       29.87F WCI  34
6HR MIN TEMP:  39; 6HR MAX TEMP:  47;

CHADRON        CLOUDY    39  30  70 CALM      29.84S
6HR MIN TEMP:  38; 6HR MAX TEMP:  54;

GORDON         FAIR      46  31  56 W10       29.83F
6HR MIN TEMP:  46; 6HR MAX TEMP:  52;

KIMBALL        MOCLDY    49  26  42 W13       29.94S
SIDNEY         MOCLDY    42  23  46 SW9       29.92F
6HR MIN TEMP:  41; 6HR MAX TEMP:  63;

$$

NEZ057>060-069>072-079>082-190100-
SOUTHWEST NEBRASKA

CITY           SKY/WX    TMP DP  RH WIND       PRES   REMARKS
NORTH PLATTE   MOCLDY    37  28  70 CALM      29.90F
6HR MIN TEMP:  37; 6HR MAX TEMP:  47;

IMPERIAL       CLOUDY    44  27  51 CALM      29.92S
6HR MIN TEMP:  44; 6HR MAX TEMP:  56;

LEXINGTON      CLOUDY    40  31  71 CALM      29.92S
MCCOOK         CLOUDY    44  25  47 CALM      29.93S
6HR MIN TEMP:  42; 6HR MAX TEMP:  52;

OGALLALA       CLOUDY    40  29  64 CALM      29.90F
$$

NEZ005>010-023>029-035>040-094-190100-
NORTH CENTRAL NEBRASKA

CITY           SKY/WX    TMP DP  RH WIND       PRES   REMARKS
VALENTINE      CLOUDY    42  29  59 W5        29.82F
6HR MIN TEMP:  38; 6HR MAX TEMP:  49;

AINSWORTH      MOCLDY    39  32  77 SW8       29.83S WCI  33
BROKEN BOW     CLOUDY    39  30  70 CALM      29.87F
6HR MIN TEMP:  38; 6HR MAX TEMP:  44;

O`NEILL        MOCLDY    36  31  82 SW6       29.84S WCI  31
ORD            CLOUDY    37  29  72 SW3       29.86F
6HR MIN TEMP:  37; 6HR MAX TEMP:  47;

THEDFORD       MOCLDY    41  32  69 SW7       29.87S
$$

NEZ041-046>049-061>064-073>077-083>087-190100-
SOUTH CENTRAL NEBRASKA

CITY           SKY/WX    TMP DP  RH WIND       PRES   REMARKS
GRAND ISLAND   CLOUDY    38  30  73 SW10      29.91R WCI  31
6HR MIN TEMP:  37; 6HR MAX TEMP:  43;

AURORA         CLOUDY    36  30  80 SW5       29.91R WCI  32
HASTINGS       CLOUDY    41  29  62 SW3       29.92S
6HR MIN TEMP:  37; 6HR MAX TEMP:  45;

HEBRON         CLOUDY    37  29  72 S7        29.94F WCI  32
HOLDREGE       CLOUDY    41  29  61 SW6       29.92S
KEARNEY        CLOUDY    40  30  67 SW12      29.92R WCI  33
YORK           CLOUDY    36  32  87 S9        29.92R WCI  29
$$

NEZ011>018-030>034-042>045-190100-
NORTHEAST NEBRASKA

CITY           SKY/WX    TMP DP  RH WIND       PRES   REMARKS
NORFOLK        CLOUDY    35  30  82 S10       29.84F WCI  27
6HR MIN TEMP:  35; 6HR MAX TEMP:  40;

ALBION         CLOUDY    37  30  75 CALM      29.87F
BLAIR          CLOUDY    33  25  73 S10       29.91S WCI  24
COLUMBUS       CLOUDY    40  29  64 SW9       29.91R WCI  34
FREMONT        CLOUDY    37  27  65 S6        29.92S WCI  33
TEKAMAH        CLOUDY    33  24  69 S10       29.91S WCI  25
6HR MIN TEMP:  33; 6HR MAX TEMP:  41;

WAYNE          CLOUDY    35  31  85 SW10      29.86S WCI  27
$$

NEZ050>053-065>068-078-088>093-190100-
SOUTHEAST NEBRASKA

CITY           SKY/WX    TMP DP  RH WIND       PRES   REMARKS
LINCOLN        CLOUDY    34  25  69 S12       29.95R WCI  25
6HR MIN TEMP:  34; 6HR MAX TEMP:  42;

OMAHA EPPLEY   CLOUDY    31  22  69 S12       29.95R WCI  22
6HR MIN TEMP:  31; 6HR MAX TEMP:  36;

BEATRICE       CLOUDY    34  25  69 S7        29.96S WCI  28
FALLS CITY     CLOUDY    35  25  66 S7        29.99S WCI  29
6HR MIN TEMP:  32; 6HR MAX TEMP:  41;

NEBRASKA CITY  CLOUDY    34  25  69 SW16      29.96S WCI  24
PLATTSMOUTH    CLOUDY    31  23  72 S10       29.95S WCI  22
$$

NEZ044-045-051>053-067-190100-
OMAHA AREA

CITY           SKY/WX    TMP DP  RH WIND       PRES   REMARKS
OMAHA EPPLEY   CLOUDY    31  22  69 S12       29.95R WCI  22
6HR MIN TEMP:  31; 6HR MAX TEMP:  36;

BLAIR          CLOUDY    33  25  73 S10       29.91S WCI  24
FREMONT        CLOUDY    37  27  65 S6        29.92S WCI  33
MILLARD        CLOUDY    33  25  73 SE6       29.95R WCI  27
OFFUTT AFB     CLOUDY    31  21  67 S6        29.95R WCI  25
PLATTSMOUTH    CLOUDY    31  23  72 S10       29.95S WCI  22
WAHOO          FAIR      36  26  65 S10       29.92S WCI  28
$$




USA.gov is the U.S. government's official web portal to all federal, state and local government web resources and services.